DEMHO EDDG-EDLW

Flight info

Callsign DEMHO
Flight time N/A
Altitude
Route
Aircraft DA40

Departure

Time 2026-04-24 14:25
Airport Münster Osnabrück Airport (EDDG)

Arrival

Time N/A
Airport Dortmund Airport (EDLW)
Time Latitude Longitude Altitude Speed Heading
2026-04-24 14:20 52.13154 7.68311 159 ft 0 kts 271°
2026-04-24 14:23 52.13174 7.68276 159 ft 9 kts
2026-04-24 14:24 52.13229 7.68343 160 ft 13 kts 338°
2026-04-24 14:24 52.13316 7.68285 162 ft 14 kts 340°
2026-04-24 14:24 52.13404 7.68225 161 ft 13 kts 291°
2026-04-24 14:24 52.13360 7.67984 161 ft 46 kts 253°
2026-04-24 14:25 52.13278 7.67543 222 ft 70 kts 252°
2026-04-24 14:25 52.12985 7.66430 461 ft 89 kts 250°
2026-04-24 14:25 52.12481 7.65897 798 ft 103 kts 188°
2026-04-24 14:25 52.11730 7.66098 1059 ft 110 kts 168°
2026-04-24 14:26 52.10989 7.66199 1344 ft 110 kts 194°
2026-04-24 14:26 52.10163 7.65840 1327 ft 129 kts 205°
2026-04-24 14:26 52.09324 7.65278 1325 ft 131 kts 210°
2026-04-24 14:26 52.08509 7.64640 1236 ft 123 kts 216°
2026-04-24 14:27 52.07792 7.63901 1218 ft 123 kts 222°
2026-04-24 14:27 52.07064 7.63105 1079 ft 129 kts 222°
2026-04-24 14:27 52.06287 7.62387 1131 ft 126 kts 208°
2026-04-24 14:27 52.05467 7.61805 1116 ft 128 kts 212°
2026-04-24 14:28 52.04683 7.61196 1215 ft 127 kts 206°
2026-04-24 14:28 52.03819 7.60762 1252 ft 132 kts 199°
2026-04-24 14:28 52.02900 7.60352 1156 ft 140 kts 206°
2026-04-24 14:28 52.02079 7.59609 1099 ft 132 kts 225°
2026-04-24 14:29 52.01456 7.58639 994 ft 124 kts 232°
2026-04-24 14:29 52.00834 7.57724 971 ft 123 kts 211°
2026-04-24 14:29 52.00054 7.57203 935 ft 127 kts 207°
2026-04-24 14:29 51.99357 7.56452 1018 ft 115 kts 221°
2026-04-24 14:30 51.98907 7.55915 946 ft 122 kts 217°
2026-04-24 14:30 51.97896 7.55151 934 ft 118 kts 206°
2026-04-24 14:30 51.97107 7.54747 915 ft 122 kts 193°
2026-04-24 14:30 51.96261 7.54604 926 ft 120 kts 184°
2026-04-24 14:31 51.95429 7.54678 956 ft 120 kts 179°
2026-04-24 14:31 51.94595 7.54896 972 ft 120 kts 174°
2026-04-24 14:31 51.93777 7.55116 1147 ft 118 kts 172°
2026-04-24 14:31 51.92981 7.55448 1249 ft 121 kts 172°
2026-04-24 14:32 51.92137 7.55707 1363 ft 123 kts 172°
2026-04-24 14:32 51.91288 7.56012 1467 ft 130 kts 170°
2026-04-24 14:32 51.90381 7.56340 1580 ft 134 kts 169°
2026-04-24 14:32 51.89469 7.56663 1823 ft 134 kts 171°
2026-04-24 14:33 51.88564 7.56975 2001 ft 136 kts 171°
2026-04-24 14:33 51.87641 7.57308 1996 ft 138 kts 170°
2026-04-24 14:33 51.86706 7.57651 2001 ft 137 kts 168°
2026-04-24 14:33 51.85794 7.58008 2002 ft 137 kts 155°
2026-04-24 14:34 51.84979 7.58814 2006 ft 137 kts 150°
2026-04-24 14:34 51.84169 7.59620 2009 ft 136 kts 150°
2026-04-24 14:34 51.83344 7.60376 2005 ft 136 kts 162°
2026-04-24 14:34 51.82428 7.60479 2010 ft 131 kts 187°
2026-04-24 14:35 51.81501 7.60464 2001 ft 134 kts 179°
2026-04-24 14:35 51.80563 7.60571 2001 ft 137 kts 179°
2026-04-24 14:35 51.79616 7.60681 1998 ft 136 kts 178°
2026-04-24 14:35 51.78703 7.60811 2003 ft 130 kts 180°
2026-04-24 14:36 51.77819 7.60954 2011 ft 126 kts 179°
2026-04-24 14:36 51.76932 7.61069 2013 ft 129 kts 179°
2026-04-24 14:36 51.76046 7.61162 2004 ft 125 kts 178°
2026-04-24 14:36 51.75169 7.61246 2011 ft 130 kts 179°
2026-04-24 14:37 51.74301 7.61314 2012 ft 124 kts 180°
2026-04-24 14:37 51.73420 7.61401 2012 ft 126 kts 181°
2026-04-24 14:37 51.72534 7.61499 2002 ft 128 kts 180°
2026-04-24 14:37 51.71662 7.61637 2003 ft 124 kts 179°
2026-04-24 14:38 51.70807 7.61764 2014 ft 126 kts 179°
2026-04-24 14:38 51.69916 7.61866 2016 ft 129 kts 180°
2026-04-24 14:38 51.69035 7.61992 2010 ft 125 kts 180°
2026-04-24 14:38 51.68169 7.62106 2011 ft 125 kts 180°
2026-04-24 14:39 51.67327 7.62213 2010 ft 121 kts 180°
2026-04-24 14:39 51.66484 7.62334 2010 ft 121 kts 179°
2026-04-24 14:39 51.65627 7.62360 2017 ft 124 kts 182°
2026-04-24 14:39 51.64760 7.62368 2024 ft 125 kts 182°
2026-04-24 14:40 51.64178 7.62387 2019 ft 126 kts 180°
2026-04-24 14:40 51.63015 7.62406 2011 ft 124 kts 182°
2026-04-24 14:40 51.62445 7.62425 2010 ft 120 kts 182°
2026-04-24 14:40 51.61619 7.62456 2016 ft 122 kts 181°
2026-04-24 14:41 51.60765 7.62499 1997 ft 119 kts 184°
2026-04-24 14:41 51.59959 7.62314 2001 ft 117 kts 201°
2026-04-24 14:41 51.59257 7.61649 1914 ft 118 kts 230°
2026-04-24 14:41 51.58701 7.60733 1994 ft 117 kts 212°
2026-04-24 14:42 51.57875 7.60627 2052 ft 122 kts 171°
2026-04-24 14:42 51.57058 7.61042 1982 ft 124 kts 165°
2026-04-24 14:42 51.56233 7.61439 1998 ft 123 kts 168°
2026-04-24 14:42 51.55400 7.61557 1984 ft 120 kts 194°
2026-04-24 14:43 51.54721 7.60799 1890 ft 121 kts 236°
2026-04-24 14:43 51.54289 7.59750 1877 ft 105 kts 244°
2026-04-24 14:43 51.53808 7.58885 1643 ft 106 kts 217°
2026-04-24 14:43 51.53099 7.58626 1439 ft 106 kts 170°
2026-04-24 14:44 51.52485 7.59253 1244 ft 113 kts 124°
2026-04-24 14:44 51.52505 7.60423 1005 ft 111 kts 57°
2026-04-24 14:44 51.52859 7.61441 839 ft 97 kts 60°
2026-04-24 14:44 51.53075 7.62378 786 ft 82 kts 64°
2026-04-24 14:45 51.53254 7.63201 761 ft 77 kts 73°
2026-04-24 14:45 51.53169 7.63974 835 ft 79 kts 140°
2026-04-24 14:45 51.52699 7.64025 784 ft 75 kts 247°
2026-04-24 14:45 51.52511 7.63147 585 ft 86 kts 242°
2026-04-24 14:46 51.52234 7.62348 424 ft 77 kts 245°
2026-04-24 14:46 51.51974 7.61701 409 ft 61 kts 203°